CW9443 Weather Reports


Display with metric or nautical units.
time (UTC)temp
F
wind
direction
speed
MPH
gust
MPH
rain 1hr
in
rain 24hr
in
rain mn
in
humidity
%
barometer
mb
20260510204559 72 225 2.0 0.0 0.00 0.00 0.00 64 1012.3
20260510203053 72 219 1.0 0.0 0.00 0.00 0.00 65 1012.3
20260510201526 72 225 3.0 0.0 0.00 0.00 0.00 65 1012.3
20260510200028 72 218 2.0 0.0 0.00 0.00 0.00 65 1012.4
20260510194527 71 200 3.0 0.0 0.00 0.00 0.00 67 1012.4
20260510193123 72 222 2.0 0.0 0.00 0.00 0.00 66 1012.4
20260510191526 71 232 2.0 0.0 0.00 0.00 0.00 66 1012.4
20260510190031 71 220 3.0 0.0 0.00 0.00 0.00 68 1012.4
20260510184523 71 213 3.0 0.0 0.00 0.00 0.00 67 1012.4
20260510183121 69 233 1.0 0.0 0.00 0.00 0.00 69 1012.3
20260510181526 69 233 1.0 0.0 0.00 0.00 0.00 68 1012.3
20260510180025 68 237 1.0 0.0 0.00 0.00 0.00 72 1012.3
20260510174520 67 234 0.0 0.0 0.00 0.00 0.00 74 1012.3
20260510173118 64 234 0.0 0.0 0.00 0.00 0.00 81 1012.2
20260510171515 64 234 0.0 0.0 0.00 0.00 0.00 80 1012.2
20260510170010 62 234 0.0 0.0 0.00 0.00 0.00 87 1012.2
20260510163059 58 234 0.0 0.0 0.00 0.00 0.00 95 1012.1
20260510160046 56 234 0.0 0.0 0.00 0.00 0.00 95 1012.0
20260510154553 56 232 0.0 0.0 0.00 0.00 0.00 95 1012.0
20260510153043 55 232 0.0 0.0 0.00 0.00 0.00 95 1012.1
20260510120015 52 229 0.0 0.0 0.00 0.00 0.00 94 1011.3
20260510114513 51 229 0.0 0.0 0.00 0.00 0.00 94 1011.2
20260510113005 51 229 0.0 0.0 0.00 0.00 0.00 94 1011.0
20260510110054 52 229 0.0 0.0 0.00 0.00 0.00 93 1011.1
20260510104553 52 229 0.0 0.0 0.00 0.00 0.00 93 1010.9
20260510103102 52 229 0.0 0.0 0.00 0.00 0.00 93 1010.8
20260510100053 53 229 0.0 0.0 0.00 0.00 0.00 92 1010.9
20260510094559 53 229 0.0 0.0 0.00 0.00 0.00 91 1011.0
20260510093059 54 229 0.0 0.0 0.00 0.00 0.00 91 1011.0
20260510090008 55 229 0.0 0.0 0.00 0.00 0.00 91 1011.0
20260510084517 55 229 0.0 0.0 0.00 0.00 0.00 90 1010.9
20260510083007 55 229 0.0 0.0 0.00 0.00 0.00 91 1010.9
20260510080016 55 229 0.0 0.0 0.00 0.00 0.00 91 1011.2
20260510074507 55 229 0.0 0.0 0.00 0.00 0.00 90 1011.3
20260510073016 56 229 0.0 0.0 0.00 0.00 0.00 91 1011.3
20260510070045 56 229 0.0 0.0 0.00 0.00 0.00 90 1011.5
20260510064551 56 229 0.0 0.0 0.00 0.00 0.00 90 1011.4
20260510063047 56 229 0.0 0.0 0.00 0.00 0.00 89 1011.5
20260510060045 57 229 0.0 0.0 0.00 0.00 0.00 88 1011.4
20260510054543 58 229 0.0 0.0 0.00 0.00 0.00 86 1011.4
20260510053041 58 229 0.0 0.0 0.00 0.00 0.00 86 1011.5
20260510050014 58 229 0.0 0.0 0.00 0.00 0.00 86 1011.4
20260510044513 58 229 0.0 0.0 0.00 0.00 0.00 86 1011.3
20260510043014 58 229 0.0 0.0 0.00 0.00 0.00 86 1011.3
20260510040057 58 229 0.0 0.0 0.00 0.00 0.00 86 1011.1
20260510034655 58 229 0.0 0.0 0.00 0.00 0.00 85 1010.9
20260510033047 58 229 0.0 0.0 0.00 0.00 0.00 85 1010.9
20260510031546 58 229 0.0 0.0 0.00 0.00 0.00 84 1010.7
20260510000043 70 223 0.0 0.0 0.00 0.00 0.00 66 1010.4
20260509234640 71 231 0.0 0.0 0.00 0.00 0.00 64 1010.4
20260509233013 72 217 0.0 0.0 0.00 0.00 0.00 64 1010.4
20260509231514 72 233 1.0 0.0 0.00 0.00 0.00 65 1010.5
20260509230013 72 210 0.0 0.0 0.00 0.00 0.00 64 1010.5
20260509223052 72 210 1.0 0.0 0.00 0.00 0.00 65 1010.7
20260509221550 73 223 0.0 0.0 0.00 0.00 0.00 63 1010.9
20260509220050 74 217 0.0 0.0 0.00 0.00 0.00 62 1011.0
20260509214648 74 211 0.0 0.0 0.00 0.00 0.00 62 1011.3
20260509213055 74 209 1.0 0.0 0.00 0.00 0.00 62 1011.3
20260509211543 73 207 2.0 0.0 0.00 0.00 0.00 64 1011.5
20260509210058 74 248 1.0 0.0 0.00 0.00 0.00 63 1011.6